OBJECT BP, 68477

Orbit data source: Space-Track

You're viewing an Uncataloged Satellite

Recently launched and/or uncataloged satellites may have evolving metadata. Metadata may include but not limited to: Owner, Maufacturer, Bus, Motor, and Mission.

OBJECT BP, 68477 is a satellite in SSO that was launched on Mon, 30 Mar 2026 UTC via an FALCON 9 launch vehicle from the Air Force Western Test Range (AFWTR). Unknown objects in Earth's orbit typically refer to objects detected orbiting the Earth but have not yet been identified or cataloged. These objects could be anything from previously untracked satellites, spent rocket stages, debris from satellite collisions, or even natural meteoroids temporarily captured by Earth's gravity.

Loading next visibility...
Identifier
68477, 2026-067BP
Orbit
SSO
Country
Flag of TBDTBD
Related business
None
Manufacturer
Unknown
Mission
Operational spacecraft
Bus & Motor
Unknown
Mass
Unknown
Launch date (UTC)
2026-03-30 (2 months ago)
Launch vehicle
FALCON 9
Launch site
Air Force Western Test Range (AFWTR)
Object type
Unknown
Shape & HBR
Unknown shape, 1.1 m
Radar Cross Section
Medium (>0.1 m² and <1 m²)

Expand to show TLE details & history
Last TLE update: 4 days ago

TLE from 4 days ago
0 OBJECT BP
1 68477U 26067BP  26153.84848684  .00007211  00000-0  72130-3 0  9997
2 68477  97.7524 112.2274 0006557 106.4886 253.7054 14.91718231  8992
Epoch: 2026-06-02T20:21Z
TLE epoch observation values (Epoch: 2026-06-02T20:21:49.262Z)
Latitude
-0.00002°
Longitude
-84.54342°
Altitude
596.905 km
Speed
7.561 km/s
True Right ascension
07h 28m 54s
True Declination
0° 00' 00"
Sunlit
Object was in daylight at epoch
Visualization orbit readout
Latitude
Unknown
Longitude
Unknown
Altitude
Unknown
Speed
Unknown
Apparent Right ascension
Unknown
Apparent Declination
Unknown
Sunlit
N/A
Visualization observer readout
Local Sidereal Time
03:20:26
Azimuth
Unknown
Elevation
Unknown
Doppler factor
Unknown
Orbital elements
Apogee altitude
594.165 km
Perigee altitude
585.028 km
Semi-major axis
6,967.733 km
Eccentricity
0.00066
Inclination
97.7524°
RAAN
112.2274°
Arg. of periapsis
106.4886°
True anomaly
253.6333°
Mean anomaly
253.7054°
Eccentric anomaly
253.66935°
Mean motion
3.73169 °/min
Orbital period
96.47 mins
BSTAR
0.0007213
Loading maneuver chart data...
Computing Atmospheric mass density...
Loading historical data...
Loading historical data...
Loading historical data...
Loading historical data...
Loading historical data...
Loading historical data...
Loading historical data...

Documentation

Showing up to 5 results
|